GFSSE_925_thetae_000.txt.gz
Theta_e
335 332 330 327 327 327 328 333 333 333 333 331 327 322 320 316 315 324 326 330 332 333 334 334 333 336 335 338 343 342 343 343 343 344 345 342 344 346 346 345 345 349 346
331 331 329 326 328 328 329 331 331 327 332 332 329 328 324 318 316 325 326 329 331 332 334 333 333 334 336 336 342 342 342 343 343 342 343 342 343 346 344 343 347 347 344
328 330 333 328 328 329 329 329 324 324 330 332 330 329 328 327 324 325 327 329 331 332 333 334 333 333 336 336 340 342 341 342 342 342 342 344 347 346 342 344 347 343 342
327 330 329 331 330 329 327 325 323 327 329 333 332 331 330 328 327 326 327 328 330 331 332 333 333 333 336 336 338 341 341 341 341 343 343 344 344 345 342 342 342 342 341
326 325 326 322 323 323 325 328 326 327 328 331 333 332 331 330 329 328 328 329 329 330 332 332 334 333 333 336 337 339 340 340 340 340 343 342 344 343 339 339 340 340 341
322 322 324 321 322 328 329 329 330 328 328 330 331 331 330 331 330 329 328 328 328 329 331 332 332 333 333 336 336 335 339 339 340 343 342 343 342 337 335 332 334 338 341
321 322 323 325 320 325 325 333 332 330 331 330 331 330 329 329 329 329 329 328 327 328 328 330 332 332 333 333 336 332 338 338 342 344 342 343 339 341 335 332 334 334 338
322 326 326 325 320 320 323 330 331 330 330 329 328 328 328 328 328 329 329 328 328 327 327 327 330 332 331 332 332 332 333 338 343 344 342 341 338 336 332 333 333 336 338
321 320 321 322 323 320 320 324 326 324 321 322 324 326 327 327 328 328 328 328 328 327 328 327 327 332 329 330 333 336 331 339 344 344 341 340 335 337 339 334 335 335 339
319 319 320 320 319 322 323 323 319 319 320 322 324 325 326 327 325 327 328 326 327 328 327 327 326 330 331 329 331 333 331 339 343 342 337 338 335 339 340 337 335 338 338
319 319 320 320 322 324 323 323 323 324 323 323 323 323 323 324 325 327 327 327 327 326 327 327 327 331 332 329 331 329 333 340 342 342 338 336 337 341 337 331 336 337 337
320 319 318 323 323 323 323 324 325 325 323 322 322 322 323 324 325 324 325 325 325 326 327 327 328 331 331 331 331 330 332 339 342 341 340 333 335 339 338 334 334 334 334
321 318 318 323 324 324 324 325 324 325 324 323 323 324 323 323 324 324 323 323 324 325 326 326 324 327 330 331 331 328 327 340 342 341 340 336 337 336 333 330 328 332 335
319 319 323 324 325 325 325 325 325 325 324 324 324 323 324 324 324 324 324 322 324 325 326 327 325 329 331 332 331 329 329 338 342 342 341 337 336 337 331 333 331 331 336
319 325 326 325 326 326 326 325 326 326 325 324 324 323 324 324 325 323 323 323 324 325 326 328 327 329 331 332 331 330 331 338 342 341 341 337 335 336 331 331 334 334 335
320 327 325 326 328 327 327 327 327 327 326 324 323 323 325 325 324 324 322 323 324 325 326 327 327 328 331 331 330 330 333 338 341 341 342 337 336 330 330 335 336 336 338
322 326 325 326 327 328 328 328 327 327 327 326 325 325 325 325 325 325 324 322 323 325 326 327 328 330 330 330 330 330 334 338 340 339 339 337 333 335 333 327 335 338 338
325 325 325 326 327 328 328 328 328 328 328 327 326 326 326 326 326 326 326 326 326 327 327 327 328 328 329 330 330 329 335 338 340 339 339 338 331 331 329 332 337 336 336
323 324 324 326 327 327 327 327 328 328 328 328 326 325 326 327 327 327 327 327 327 327 328 328 327 327 329 330 330 329 337 337 339 339 336 339 332 328 331 334 334 335 334
323 325 324 326 327 327 328 328 327 328 329 327 324 319 324 326 327 328 328 327 327 326 327 328 329 328 328 330 330 332 337 337 337 335 335 334 333 330 331 331 331 334 336
323 325 326 325 326 324 327 329 328 329 328 328 323 323 323 325 327 328 328 327 326 327 327 328 329 329 330 331 332 335 335 336 336 336 334 331 329 327 331 331 332 333 333
321 323 326 325 324 323 327 329 329 329 327 325 324 325 324 323 327 328 328 327 327 326 328 328 329 330 331 332 333 333 334 334 335 333 331 329 331 331 331 331 331 332 332
321 323 324 325 324 325 329 328 330 331 328 329 326 327 325 325 326 327 327 327 327 326 328 329 330 331 332 333 332 332 334 334 331 334 333 331 332 332 332 331 331 331 331
322 323 324 325 325 326 328 327 329 330 329 329 330 328 327 326 324 327 328 328 328 327 330 330 331 331 331 333 332 332 332 332 332 330 332 332 331 330 331 331 332 331 330
322 322 325 327 325 329 328 327 326 329 331 330 330 330 329 329 328 328 328 329 329 330 331 331 332 331 332 331 332 331 332 330 331 330 331 328 329 330 331 331 332 329 329
322 322 324 327 324 327 328 328 327 326 328 329 330 329 328 329 330 329 327 327 330 331 331 330 331 332 333 333 330 331 328 331 330 330 330 329 326 329 332 331 331 331 332

GFSSE_925_thetae_003.txt.gz
Theta_e
334 338 331 327 326 327 327 329 329 329 334 335 332 327 323 320 317 324 326 327 329 332 333 335 335 334 337 335 338 344 343 342 345 345 345 343 342 346 347 344 344 350 347
328 335 330 329 327 328 329 331 331 329 335 337 334 331 330 326 324 324 326 327 328 330 332 335 334 334 335 337 336 343 343 343 342 344 344 344 342 346 346 342 349 348 347
328 331 335 329 327 329 330 330 331 333 338 339 336 332 331 330 329 327 327 327 328 330 331 332 335 335 334 337 336 342 344 342 343 343 343 346 347 346 344 345 347 343 345
328 332 332 335 325 326 330 332 331 337 339 338 337 334 333 332 331 329 329 329 328 329 330 331 333 334 335 337 338 340 342 341 342 343 343 345 348 345 342 345 345 342 344
328 329 331 328 326 330 333 332 326 327 330 335 334 334 334 333 333 332 331 330 330 328 330 331 333 335 334 335 339 339 341 340 341 341 345 344 346 345 340 340 340 342 343
325 324 327 325 323 323 332 339 334 332 334 334 332 331 332 332 332 332 332 331 330 328 329 332 334 334 335 334 338 339 337 339 340 342 342 346 344 343 341 341 340 340 343
324 323 324 326 324 320 328 340 337 337 335 334 333 333 333 331 331 331 331 331 330 330 327 329 331 334 334 334 334 339 336 339 343 344 341 342 344 341 338 337 333 337 337
324 325 326 327 324 320 326 330 332 331 331 331 330 330 330 329 329 329 329 331 331 330 328 328 328 331 334 331 333 335 339 335 342 344 345 343 343 338 336 333 330 328 334
324 323 323 323 325 321 321 322 321 322 321 320 320 324 327 327 328 329 329 330 330 330 329 328 328 328 333 331 332 335 337 332 343 344 344 343 343 340 337 333 332 331 338
322 322 322 320 319 321 323 326 324 322 322 323 322 325 325 326 327 326 328 329 329 330 328 329 329 327 331 331 329 331 337 334 343 344 344 342 342 341 337 336 335 334 338
322 321 321 320 322 324 325 325 324 327 327 325 324 325 324 326 326 326 328 328 329 328 329 328 328 327 331 333 329 330 336 337 341 341 343 341 340 338 339 337 335 336 336
322 322 320 320 325 326 325 324 326 326 326 325 324 323 324 324 325 326 326 327 327 328 327 328 328 327 330 330 331 331 330 335 340 342 341 338 338 339 338 336 334 336 337
323 322 320 322 326 327 326 326 325 325 326 324 324 322 324 324 324 326 325 325 326 326 328 326 327 325 324 329 332 332 329 335 341 342 341 338 338 340 339 334 334 332 335
323 321 326 327 328 329 328 326 325 326 326 325 325 325 324 325 325 326 325 325 324 326 328 328 327 321 323 330 332 333 328 335 341 342 342 338 339 339 333 333 334 335 334
323 324 328 328 330 330 328 327 327 327 327 326 325 325 324 326 326 325 324 324 324 325 327 327 329 325 328 332 333 333 328 334 341 342 341 335 339 338 332 332 331 331 335
322 327 328 329 329 329 328 328 327 328 328 327 326 324 325 326 326 326 325 324 324 323 325 327 328 327 329 332 334 332 331 336 339 342 341 338 336 333 332 330 329 335 334
323 327 328 327 327 328 328 329 329 328 328 327 327 325 326 326 327 326 325 324 325 326 326 328 329 330 331 332 332 332 331 337 340 341 340 338 337 332 332 330 332 334 335
324 327 328 326 327 328 329 329 329 329 330 329 328 320 322 327 327 328 326 325 324 326 326 328 328 329 331 332 331 331 332 337 340 341 340 338 335 333 332 334 329 332 334
325 327 327 328 327 329 329 330 330 331 331 330 324 322 319 327 327 328 329 328 327 327 328 328 328 328 331 331 332 331 336 338 340 340 339 338 335 333 333 330 331 334 335
324 327 327 327 329 329 329 329 331 332 331 329 326 321 319 326 327 328 329 329 328 329 329 330 328 329 331 330 331 334 337 339 339 340 339 337 335 329 327 325 329 328 332
324 328 328 327 329 327 327 329 330 332 329 329 329 326 327 325 326 328 330 329 329 328 329 331 329 329 330 331 331 336 338 338 338 338 334 332 331 329 329 331 327 329 333
325 327 328 328 327 327 328 330 332 332 330 329 330 329 328 328 327 328 329 328 327 329 329 331 331 330 332 332 332 334 336 336 336 335 336 334 331 332 329 326 328 330 330
323 326 327 327 327 328 331 329 331 333 332 333 332 330 329 327 328 328 328 327 327 327 329 330 332 331 333 335 333 333 335 337 334 335 334 333 330 330 331 331 330 330 331
324 326 326 327 327 329 330 328 330 333 333 332 332 332 330 329 328 328 328 328 327 326 327 329 331 332 332 334 334 333 333 332 335 334 333 333 330 332 331 331 330 331 332
323 325 326 327 327 330 329 329 330 331 332 334 334 332 331 330 329 328 328 328 327 328 330 332 333 334 331 332 333 334 332 333 331 331 333 331 332 332 332 331 331 331 328
323 324 327 328 326 329 330 329 330 331 332 332 330 327 330 331 329 329 329 329 330 331 330 331 333 332 332 333 333 332 333 333 331 331 330 330 329 330 332 331 331 330 329

GFSSE_925_thetae_006.txt.gz
Theta_e
341 327 321 324 325 325 326 326 325 325 325 327 329 330 325 322 321 325 326 327 327 329 330 332 335 335 334 336 336 336 343 344 343 346 346 345 343 343 345 342 345 349 347
338 334 324 325 326 326 327 327 328 329 332 336 337 335 331 327 323 326 327 327 328 328 329 330 335 335 334 335 337 335 343 344 342 344 343 344 341 345 346 342 349 346 347
337 336 331 326 327 326 327 329 330 332 335 338 338 337 333 332 331 329 329 329 329 329 329 330 330 336 335 335 336 337 341 344 342 342 343 344 343 343 345 345 347 342 346
330 335 337 332 325 322 326 331 334 336 338 338 339 338 336 333 333 332 331 331 331 330 330 329 329 331 334 335 336 338 339 343 341 342 342 343 346 344 343 346 342 336 338
328 330 332 334 330 325 326 333 336 338 338 337 337 335 334 334 334 334 334 333 332 331 330 329 329 330 334 335 335 338 338 341 341 342 343 344 345 345 342 343 343 341 343
325 329 331 328 326 324 326 337 340 338 338 336 335 334 333 332 332 332 332 333 333 332 331 329 330 334 335 336 335 335 337 340 340 342 344 344 344 344 341 341 337 340 343
324 325 329 327 325 324 323 336 339 339 337 337 335 334 333 334 333 332 332 332 331 332 332 329 330 333 335 335 335 335 337 338 340 343 343 343 342 343 339 338 339 341 341
325 325 328 329 326 324 322 319 326 330 333 331 330 331 332 331 331 330 330 330 330 331 332 330 328 329 331 335 333 333 335 339 341 341 343 342 343 343 339 338 338 339 337
325 325 325 325 325 324 322 322 322 322 322 321 321 322 327 328 328 328 329 330 330 331 331 331 328 328 329 332 331 331 332 338 335 341 343 342 342 341 339 336 335 333 332
324 323 323 323 322 322 326 327 326 324 325 326 325 325 326 325 325 326 328 329 330 331 331 331 330 328 328 330 331 331 332 337 333 341 342 343 342 341 337 333 331 328 333
323 323 322 322 322 324 325 327 326 327 329 327 327 326 325 324 325 327 328 329 329 331 331 329 329 330 328 329 332 329 332 333 337 342 342 343 342 341 337 335 333 331 331
323 323 323 321 324 327 327 326 326 327 328 327 325 324 324 324 324 325 326 328 329 329 329 330 330 330 328 329 330 328 330 332 336 339 340 341 342 342 339 337 334 334 334
324 324 322 324 326 329 329 328 327 326 327 327 325 324 323 324 323 325 326 327 326 328 328 329 329 329 327 325 329 331 330 330 334 339 340 340 342 341 339 336 333 333 330
324 323 326 328 329 330 331 330 327 327 327 325 327 326 325 325 326 326 327 326 326 327 326 327 327 328 326 324 329 332 332 330 337 338 340 338 339 340 338 336 333 332 332
325 324 328 329 330 332 331 329 329 328 327 328 327 326 326 323 326 326 326 325 326 326 326 326 327 327 325 322 330 331 333 330 336 337 341 337 337 339 338 335 333 333 334
325 325 328 329 330 330 330 329 330 330 329 328 326 327 325 325 325 325 325 325 325 324 325 326 328 327 327 325 330 333 333 333 334 338 340 338 338 336 335 335 331 329 332
325 327 328 329 328 329 330 330 329 330 329 328 327 326 325 324 325 326 325 324 324 324 324 325 327 329 329 329 331 332 333 334 334 338 340 338 338 335 333 332 332 334 332
325 328 328 328 327 328 330 330 329 330 331 330 329 325 324 320 326 327 326 325 324 324 324 325 326 328 330 328 331 332 331 334 332 337 339 337 337 334 333 332 334 334 330
325 327 328 328 329 330 330 330 330 331 332 330 329 324 322 320 327 327 326 327 325 324 324 326 327 329 331 330 331 331 334 333 335 339 338 336 334 333 332 331 331 332 329
326 327 329 328 329 330 328 329 330 333 333 331 329 326 321 321 327 328 327 326 327 324 326 326 327 328 330 330 332 331 332 333 336 338 337 336 334 333 329 332 330 333 330
325 327 330 329 329 329 328 330 331 331 329 330 329 329 327 327 325 327 327 327 327 326 325 328 328 328 331 330 332 332 334 338 336 336 337 335 333 333 332 328 329 327 330
325 327 329 329 329 329 330 331 333 333 332 332 331 329 329 328 326 327 327 327 327 327 327 328 327 329 329 331 332 334 333 334 336 336 335 334 332 331 330 331 330 327 329
327 326 329 329 329 330 332 330 331 332 332 334 331 330 329 328 328 328 329 327 326 329 329 329 328 329 331 331 332 334 335 335 334 335 333 330 330 328 328 327 326 327 329
326 326 328 328 329 331 330 330 331 332 332 332 332 331 329 329 328 328 328 327 327 328 327 327 329 325 330 331 331 332 332 332 333 335 333 332 332 330 328 325 329 329 329
326 327 327 328 329 332 331 331 332 333 331 331 329 331 328 327 328 328 328 328 327 327 327 328 328 328 330 330 333 334 333 332 331 332 334 332 332 329 328 330 328 328 330
325 327 328 329 328 331 331 330 331 332 332 332 329 330 329 329 327 328 328 328 327 327 330 332 329 330 331 332 332 332 333 332 331 331 331 331 332 332 330 330 329 330 330

GFSSE_925_thetae_009.txt.gz
Theta_e
333 327 325 322 321 322 323 324 324 324 323 322 322 321 320 321 324 325 326 326 327 327 327 329 331 333 334 334 335 336 335 342 343 344 346 346 344 344 342 344 341 345 346
330 324 322 322 322 323 324 326 326 326 327 327 332 334 332 325 323 324 328 328 328 328 328 328 329 332 333 334 334 336 336 341 343 342 346 345 342 343 342 343 344 344 346
334 328 324 324 323 324 325 325 327 330 330 332 337 338 336 333 327 326 331 331 330 330 329 329 329 329 334 335 335 335 337 338 343 343 344 344 341 342 345 342 346 343 342
332 332 331 330 326 323 321 324 328 332 334 335 336 338 337 336 333 333 333 333 332 332 331 330 329 329 329 332 335 335 338 338 342 342 343 343 343 341 345 343 346 342 339
329 331 333 335 332 327 322 324 330 334 335 334 335 337 335 335 336 335 335 334 334 333 332 332 330 329 329 331 334 334 335 334 340 340 341 342 344 342 344 344 344 339 335
330 332 334 334 330 329 330 333 336 337 337 335 337 336 334 333 333 333 333 333 333 333 333 333 330 329 330 334 336 336 334 334 336 340 341 342 343 344 343 342 337 339 340
328 331 329 327 325 325 324 326 331 337 337 337 336 335 334 334 333 334 333 332 332 333 332 333 331 331 333 334 335 335 335 337 336 339 341 341 342 342 342 342 339 343 341
325 326 327 328 327 324 323 321 319 321 330 331 330 330 330 332 332 332 331 331 330 330 330 332 332 329 330 332 334 334 333 334 338 339 341 342 342 341 342 340 339 343 340
326 327 326 324 323 323 323 322 321 322 323 324 324 323 323 326 328 328 329 329 329 330 330 331 332 330 328 329 331 331 331 332 336 336 340 341 341 340 341 338 338 337 338
324 324 323 323 323 324 325 324 325 325 325 327 326 326 327 327 326 326 327 328 329 329 330 332 332 330 328 327 326 330 330 333 334 333 340 341 341 341 341 338 338 338 336
324 323 323 323 323 326 326 327 327 325 327 328 327 327 325 324 323 324 325 329 329 330 330 332 332 331 329 328 326 330 330 332 331 331 340 341 341 342 340 338 336 332 333
323 323 322 321 321 322 322 328 328 328 328 328 327 325 324 323 322 324 325 327 328 330 330 331 331 329 329 329 327 332 329 329 329 336 340 342 342 341 340 335 332 332 333
324 322 322 324 325 326 328 328 328 328 327 327 326 324 324 323 323 323 324 325 326 326 327 329 330 330 330 328 325 330 327 328 331 336 339 338 342 341 338 336 334 332 332
323 323 327 328 329 329 330 330 328 329 328 327 326 325 327 325 323 325 326 326 326 326 327 328 328 329 329 327 320 327 331 328 330 334 337 339 339 341 340 339 336 334 331
324 326 328 328 328 330 330 329 329 328 327 327 326 327 327 326 323 325 325 325 325 326 326 327 328 327 326 326 322 326 330 330 332 333 337 338 339 341 340 338 336 334 330
324 326 328 328 330 330 329 329 329 329 330 329 328 327 327 326 325 324 324 324 324 325 326 325 326 327 328 327 323 324 331 331 333 334 335 338 339 339 338 336 335 331 332
324 326 328 328 328 328 328 330 330 329 329 330 329 327 326 325 323 324 324 324 325 324 324 325 325 326 327 327 323 329 330 331 332 333 334 337 337 338 337 336 334 332 334
324 326 328 328 328 327 329 329 330 330 330 331 330 329 326 325 322 323 326 325 325 323 324 324 325 327 328 329 327 330 332 332 332 333 334 336 337 337 336 336 334 333 330
324 327 327 328 328 329 329 328 329 330 331 332 329 328 325 323 318 324 326 325 326 323 324 323 324 325 328 328 328 328 331 332 331 335 335 336 336 336 336 334 332 333 332
325 327 328 328 328 330 327 328 330 331 332 331 329 328 327 322 320 326 327 326 325 324 324 323 325 326 328 330 330 329 330 331 331 336 337 337 335 335 333 335 334 332 331
326 326 328 328 328 329 327 331 331 332 329 329 330 329 328 327 325 326 327 326 325 324 325 324 326 327 328 328 329 326 330 330 331 337 336 336 335 334 332 332 333 330 329
325 326 329 329 329 328 329 332 331 332 331 331 331 330 328 327 326 325 326 326 325 324 324 326 326 328 328 329 329 330 332 332 334 335 335 334 333 333 330 330 331 327 327
325 325 329 329 328 329 331 331 330 330 330 330 330 330 329 327 327 326 327 326 325 326 324 326 327 328 328 330 330 331 329 330 332 333 333 333 332 330 331 331 328 329 326
327 326 328 328 328 330 330 329 331 332 331 330 329 329 329 328 327 327 326 326 326 325 326 327 327 327 328 329 331 330 331 332 333 334 332 331 330 330 330 328 329 327 329
325 325 328 328 328 331 331 330 332 331 331 331 328 329 325 327 327 327 328 327 327 328 326 327 325 327 325 330 330 331 331 331 332 332 333 330 330 329 329 328 328 329 329
327 327 327 328 329 331 332 330 330 329 329 330 329 329 328 328 328 327 327 328 327 327 327 328 325 327 323 329 331 331 331 331 331 330 331 329 330 328 326 326 327 329 329

GFSSE_925_thetae_012.txt.gz
Theta_e
333 326 325 323 320 320 321 322 322 321 320 319 320 323 327 328 327 325 324 323 322 321 326 327 328 330 332 333 334 335 335 336 342 343 345 347 345 341 340 344 343 345 346
335 326 325 322 320 320 322 323 324 324 323 322 321 321 321 321 324 328 328 328 327 328 327 327 328 328 331 332 333 334 336 334 340 342 344 345 345 345 342 343 344 344 342
331 326 324 322 321 321 322 323 325 326 326 327 331 335 335 332 326 330 332 332 330 330 330 329 329 328 329 332 334 334 335 335 339 342 342 345 344 344 344 344 343 342 342
332 325 323 323 323 322 323 325 327 329 329 330 336 337 337 336 334 333 333 333 333 332 332 331 331 330 329 328 331 334 335 336 338 342 343 345 344 342 343 343 344 340 337
331 329 328 326 325 324 324 327 329 330 331 332 335 338 337 336 336 335 334 334 334 334 332 332 332 331 330 329 329 332 335 333 333 341 341 343 343 341 343 343 345 341 334
329 329 330 330 327 326 326 326 328 329 332 338 338 338 336 335 333 332 335 334 334 333 332 333 333 332 331 330 330 334 333 332 333 338 341 341 342 342 343 342 344 340 336
331 331 334 334 331 328 326 325 325 329 336 337 338 338 336 334 333 333 333 333 333 332 332 333 333 334 331 330 334 331 335 335 337 334 339 340 341 342 341 342 343 340 338
329 334 334 329 325 325 323 322 320 321 323 328 333 332 332 332 332 332 332 331 331 331 331 332 331 333 331 332 333 331 332 334 337 337 339 341 341 341 341 341 342 337 340
327 328 326 326 326 323 322 322 321 320 322 322 323 323 324 324 328 329 329 329 329 330 330 331 331 331 332 330 332 332 332 333 334 333 338 341 341 340 340 341 340 343 342
325 325 324 325 324 324 323 323 323 323 323 325 325 326 325 325 325 327 327 328 328 328 329 330 330 331 331 330 328 329 329 333 334 332 334 340 341 340 339 341 340 341 340
326 325 325 324 325 325 324 325 326 325 325 325 327 327 327 326 324 323 323 327 329 331 330 330 330 331 329 330 329 328 330 331 331 331 332 339 340 340 342 340 339 338 334
323 323 324 324 323 324 324 327 328 327 327 329 329 327 325 323 323 322 324 326 328 329 329 330 331 332 331 330 329 328 330 330 330 329 330 337 341 342 342 340 337 335 336
322 322 322 322 323 325 327 327 328 328 328 328 328 326 324 325 324 322 323 324 325 325 326 327 329 331 330 330 328 324 327 330 329 328 335 338 341 341 341 339 337 336 332
322 322 322 324 327 327 327 328 327 328 328 327 327 326 326 326 326 323 324 325 325 326 325 326 328 329 329 330 328 321 327 328 327 329 335 337 340 342 341 338 335 332 331
322 325 327 328 327 326 325 326 327 328 328 328 328 327 327 326 326 325 323 325 325 325 325 326 327 328 329 328 327 320 327 330 328 329 334 336 337 341 340 338 338 335 336
326 327 327 328 326 326 326 328 329 329 328 329 329 329 328 326 326 326 324 324 324 323 325 325 326 328 328 327 326 324 323 329 329 330 334 336 337 340 340 339 337 337 335
325 327 327 326 327 327 327 328 329 329 329 329 329 330 328 327 326 325 324 324 324 324 324 325 325 326 326 327 328 326 323 327 330 332 335 337 336 338 340 339 338 335 333
326 327 327 327 327 327 327 329 328 329 330 330 331 329 328 327 325 324 322 324 325 325 324 324 324 325 325 326 326 327 324 329 331 332 334 335 335 338 338 338 336 334 335
326 327 327 327 327 327 328 328 327 329 330 331 330 328 327 326 324 322 320 324 325 325 323 323 325 325 326 327 328 328 330 329 332 332 333 335 336 337 338 337 336 334 335
327 327 328 327 327 328 329 327 330 330 331 330 329 328 328 327 322 320 324 326 325 325 323 323 324 324 326 326 327 328 329 329 331 333 333 334 336 336 337 336 334 335 329
327 327 327 327 327 328 327 330 331 331 331 330 329 330 329 328 326 322 326 327 326 325 324 323 323 324 325 326 327 327 329 329 330 333 337 335 336 336 335 336 334 329 329
326 327 328 328 328 328 328 331 331 331 331 330 331 330 329 328 327 325 325 326 326 325 324 324 324 326 327 327 327 327 327 330 331 332 334 335 335 335 334 333 332 333 327
326 327 329 328 328 327 330 330 329 330 330 330 330 329 329 328 327 325 325 326 325 324 324 325 325 326 327 328 326 327 328 328 332 332 334 334 334 333 333 333 332 331 330
325 326 328 329 328 329 330 329 331 331 330 331 330 329 328 328 326 326 327 326 325 326 324 325 326 326 327 328 328 325 328 330 332 333 332 331 332 331 331 330 329 329 329
325 327 329 327 328 330 330 330 330 329 330 330 329 327 325 328 327 327 326 326 325 326 326 326 326 326 327 328 329 329 329 331 331 331 333 331 330 330 330 329 327 328 329
325 328 327 327 328 330 331 330 329 326 328 328 328 328 328 328 327 326 328 326 327 327 327 326 326 327 326 328 329 329 330 330 330 330 331 330 329 329 329 329 328 327 327